TimeChST,TemperatureF,Dew PointF,Humidity,Sea Level PressureIn,VisibilityMPH,Wind Direction,Wind SpeedMPH,Gust SpeedMPH,PrecipitationIn,Events,Conditions,WindDirDegrees,DateUTC
12:54 AM,75.9,72.0,87,29.94,10.0,East,13.8,-,0.00,,Scattered Clouds,90,2013-02-19 14:54:00
1:54 AM,75.9,71.1,85,29.93,10.0,East,16.1,-,N/A,,Scattered Clouds,80,2013-02-19 15:54:00
2:54 AM,75.9,73.9,94,29.92,9.0,East,16.1,-,0.01,Rain,Light Rain,80,2013-02-19 16:54:00
6:54 AM,75.9,71.1,85,29.94,10.0,East,15.0,-,N/A,,Scattered Clouds,80,2013-02-19 20:54:00
7:44 AM,77.0,71.6,83,29.88,10.0,ENE,18.4,-,N/A,,Overcast,70,2013-02-19 21:44:00
7:54 AM,79.0,73.0,82,29.96,10.0,ENE,17.3,-,N/A,,Overcast,60,2013-02-19 21:54:00
8:24 AM,78.8,73.4,83,29.90,10.0,ENE,18.4,24.2,N/A,,Overcast,70,2013-02-19 22:24:00
8:54 AM,80.1,73.0,79,29.97,10.0,ENE,18.4,-,N/A,,Overcast,60,2013-02-19 22:54:00
10:31 AM,78.8,73.4,83,29.91,10.0,East,17.3,23.0,0.00,Rain,Light Rain,80,2013-02-20 00:31:00
10:54 AM,81.0,73.0,77,29.96,10.0,ENE,17.3,-,0.00,,Mostly Cloudy,60,2013-02-20 00:54:00
11:54 AM,82.9,73.9,74,29.95,10.0,ENE,18.4,-,N/A,,Scattered Clouds,70,2013-02-20 01:54:00
12:54 PM,82.0,73.9,76,29.93,10.0,ENE,18.4,-,N/A,,Scattered Clouds,70,2013-02-20 02:54:00
1:05 PM,80.6,73.4,79,29.86,10.0,ENE,18.4,-,N/A,,Mostly Cloudy,60,2013-02-20 03:05:00
1:17 PM,82.4,73.4,74,29.85,10.0,ENE,20.7,-,N/A,,Scattered Clouds,70,2013-02-20 03:17:00
1:54 PM,82.9,73.9,74,29.91,10.0,ENE,18.4,24.2,N/A,,Scattered Clouds,60,2013-02-20 03:54:00
2:54 PM,81.0,73.0,77,29.89,10.0,ENE,18.4,-,N/A,,Scattered Clouds,60,2013-02-20 04:54:00
3:54 PM,82.0,73.0,74,29.88,10.0,ENE,19.6,-,N/A,,Scattered Clouds,60,2013-02-20 05:54:00
4:54 PM,81.0,72.0,74,29.89,10.0,ENE,17.3,-,N/A,,Scattered Clouds,60,2013-02-20 06:54:00
5:54 PM,79.0,73.0,82,29.90,10.0,NE,12.7,-,N/A,,Scattered Clouds,50,2013-02-20 07:54:00
6:54 PM,77.0,72.0,84,29.91,10.0,ENE,16.1,-,N/A,,Scattered Clouds,60,2013-02-20 08:54:00
7:54 PM,77.0,72.0,84,29.93,10.0,ENE,15.0,-,N/A,,Scattered Clouds,60,2013-02-20 09:54:00
8:54 PM,77.0,73.0,88,29.95,10.0,NE,15.0,-,N/A,,Overcast,50,2013-02-20 10:54:00
9:54 PM,75.9,72.0,87,29.96,10.0,ENE,12.7,21.9,N/A,,Scattered Clouds,60,2013-02-20 11:54:00
10:54 PM,75.9,72.0,87,29.95,10.0,ENE,15.0,-,0.00,,Scattered Clouds,60,2013-02-20 12:54:00
11:03 PM,75.2,71.6,89,29.89,10.0,ENE,17.3,24.2,N/A,,Overcast,70,2013-02-20 13:03:00
11:13 PM,75.2,71.6,89,29.89,10.0,ENE,18.4,24.2,N/A,,Scattered Clouds,60,2013-02-20 13:13:00
11:54 PM,75.9,72.0,87,29.95,10.0,ENE,17.3,-,N/A,,Mostly Cloudy,70,2013-02-20 13:54:00